Regional Weather Roundup
Issued by NWS Mobile, AL

Home | Current Version | Previous Version | Text Only | Print | Product List | Glossary On
Versions: 1 2 3 4 5 6 7 8 9 10 11 12 13 14 15 16 17 18 19 20 21 22 23 24 25 26 27 28 29 30 31 32 33 34 35 36 37 38 39 40 41 42 43 44 45 46 47 48 49 50
000
ASUS44 KMOB 311110
RWRMOB
REGIONAL WEATHER ROUNDUP
NATIONAL WEATHER SERVICE MOBILE AL
600 AM CDT THU JUL 31 2014

NOTE: "FAIR" INDICATES FEW OR NO CLOUDS BELOW 12,000 FEET WITH NO
      SIGNIFICANT WEATHER AND/OR OBSTRUCTIONS TO VISIBILITY.

  * THESE STATIONS ARE PART OF THE UNIVERSITY OF SOUTH ALABAMA
    MESONET AND ARE NOT UNDER NWS OR FAA QUALITY CONTROL.

ALZ061>064-311200-
COASTAL ALABAMA

CITY           SKY/WX    TMP DP  RH WIND       PRES   REMARKS
MOBILE REG APT PTCLDY    65  60  84 N3        30.02R
BROOKLEY FIELD CLEAR     65  61  87 NW3       30.02R
USA CAMPUS*    NOT AVBL
DOG RIVER*       N/A     66  64  94 CALM      30.01R


CITY           SKY/WX    TMP DP  RH WIND       PRES   REMARKS
MOUNT VERNON*    N/A     57  55  94 CALM      30.03R
SARALAND*      NOT AVBL
BAY MINETTE*   NOT AVBL
LOXLEY*          N/A    N/A N/A N/A N3        30.02R
ROBERTSDALE*     N/A    N/A N/A N/A NE3       30.01R
FAIRHOPE*        N/A     63  63 100 CALM      30.00R
ELBERTA*         N/A     63  46  55 CALM      30.00R
FOLEY*         NOT AVBL
GRAND BAY*     NOT AVBL
DAUPHIN ISLND* NOT AVBL
BON SCOUR NWR* NOT AVBL
GULF SHORES    CLEAR     60  58  95 CALM      30.01R

$$

ALZ051>060-311200-
INTERIOR SOUTHWEST AND SOUTH CENTRAL ALABAMA

CITY           SKY/WX    TMP DP  RH WIND       PRES   REMARKS
GREENVILLE     CLEAR     61  58  90 CALM      30.02R
EVERGREEN      CLEAR     60  58  92 CALM      30.02R
CASTLEBERRY*   NOT AVBL
ATMORE*          N/A     63  63 100 CALM      30.03R
DIXIE*         NOT AVBL
ANDALUSIA/OPP  PTCLDY    67  61  81 CALM      30.01R
ANDALUSIA*     NOT AVBL
FLORALA APT    PTCLDY    61  58  90 CALM      30.03R
FLORALA*         N/A     59  57  94 CALM      29.99R

$$

FLZ001>006-311200-
WESTERN FLORIDA PANHANDLE

CITY           SKY/WX    TMP DP  RH WIND       PRES   REMARKS
PENSACOLA      CLEAR     64  59  83 N3        30.00R
NAS PENSACOLA  PTCLDY    64  60  87 CALM      30.00R
MILTON         PTCLDY    60  57  89 CALM      30.01
WHTNG S FIELD  CLEAR     60  57  89 CALM      30.01R


CITY           SKY/WX    TMP DP  RH WIND       PRES   REMARKS
WALNUT HILL*   NOT AVBL
JAY*           NOT AVBL
DUKE FIELD     CLEAR     59  58  99 NE1       30.00S
CRESTVIEW      CLEAR     57  55  93 CALM      30.02R
VALPARAISO     PTCLDY    64  59  82 N2        30.00R
DESTIN         CLEAR     72  63  73 CALM      30.00R

$$

MSZ076-079-311200-
INTERIOR SOUTHEAST MISSISSIPPI

CITY           SKY/WX    TMP DP  RH WIND       PRES   REMARKS
LEAKESVILLE*   NOT AVBL
AGRICOLA*      NOT AVBL

$$

MARINE OBSERVATIONS

STATION/POSITION TIME  TEMP    WIND        PRES    WAVE
                       AIR SEA DIR/SP/G            HT/PER
                 (UTC) (F)     (DEG/KT/KT) (MB)    (FT/S)
PASCAGOULA       1100   72      20/  5/  6 1015.8R
PETIT BOIS ISLND 0900   75      10/ 10/ 12 1015.5
GRAND BAY        1000   68      10/  4     1016.0S
KATRINA CUT      1000   76      30/ 11     1016.3R
CEDAR POINT      1000   72     360/  6     1015.2R
E DAUPHIN ISLAND 1000   78      10/  9/ 11 1015.5R
MIDDLE BAY LIGHT 1000   77      10/ 10     1015.6R
USCG MOBILE BAY  1100   69 83  350/  2/  3 1015.1R
STATE DOCKS      1100   69 82              1016.0R
MEAHER PARK      1000   69      10/  2     1016.3R
WEEKS BAY        1000   61                   N/A
12 S ORANGE BCH  1100   79 83   40/  8/ 10 1015.6R   1
PENSACOLA BAY    1100   72 85   30/  2/  3 1016.0R
64 S DAUPHIN ISL 1013   81 85   10/  4/  4 1015.3R
67 S FORT MORGAN 1000   79                 1015.2S

$$

SELECTED LOCATIONS ACROSS THE REGION

CITY           SKY/WX    TMP DP  RH WIND       PRES   REMARKS
NEW ORLEANS    PTCLDY    71  65  81 CALM      30.00R
GULFPORT       PTCLDY    73  61  65 CALM      30.01R
PASCAGOULA AP  CLEAR     63  61  93 CALM      30.01R
PASCAGOULA*      N/A     68  63  83 N2        30.01R
HATTIESBURG    PTCLDY    65  63  93 CALM      30.04R
LAUREL         PTCLDY    63  59  88 CALM      30.04R
MERIDIAN       MOCLDY    66  61  84 CALM      30.04R
JACKSON        CLOUDY    72  61  68 N5        30.05R
MONTGOMERY     MOCLDY    67  60  78 CALM      30.02R
TROY           PTCLDY    60  57  89 CALM      30.02R
KINSTON*       NOT AVBL
GENEVA*          N/A     57  55  94 CALM      30.03R
ASHFORD*       NOT AVBL
DOTHAN         CLEAR     62  60  93 CALM      30.04S
PANAMA CITY    CLEAR     64  60  87 CALM      29.99R

$$



USA.gov is the U.S. government's official web portal to all federal, state and local government web resources and services.